| time (UTC) | temp C | wind direction | speed KPH | gust KPH | rain 1hr cm | rain 24hr cm | rain mn cm | humidity % | barometer mb |
| 20260906164552 | 31 | 0 | 0.0 | 8.0 | 0.00 | 0.00 | 0.00 | 75 | 1017.3 |
| 20260906163045 | 30 | 64 | 0.0 | 6.4 | 0.00 | 0.00 | 0.00 | 76 | 1017.5 |
| 20260906161547 | 30 | 38 | 1.6 | 6.4 | 0.00 | 0.00 | 0.00 | 76 | 1017.4 |
| 20260906160046 | 30 | 59 | 1.6 | 4.8 | 0.00 | 0.00 | 0.00 | 77 | 1017.3 |
| 20260906154601 | 29 | 108 | 0.0 | 8.0 | 0.00 | 0.00 | 0.00 | 78 | 1017.4 |
| 20260906153057 | 28 | 0 | 0.0 | 6.4 | 0.00 | 0.00 | 0.00 | 78 | 1017.3 |
| 20260906151551 | 28 | 144 | 1.6 | 9.7 | 0.00 | 0.00 | 0.00 | 79 | 1017.3 |
| 20260906150100 | 27 | 0 | 1.6 | 9.7 | 0.00 | 0.00 | 0.00 | 79 | 1017.1 |
| 20260906144557 | 27 | 15 | 0.0 | 4.8 | 0.00 | 0.00 | 0.00 | 80 | 1017.1 |
| 20260906143107 | 27 | 208 | 0.0 | 6.4 | 0.00 | 0.00 | 0.00 | 80 | 1017.2 |
| 20260906141559 | 26 | 0 | 1.6 | 6.4 | 0.00 | 0.00 | 0.00 | 81 | 1017.3 |
| 20260906140057 | 26 | 0 | 0.0 | 8.0 | 0.00 | 0.00 | 0.00 | 82 | 1017.0 |
| 20260906134544 | 26 | 11 | 0.0 | 6.4 | 0.00 | 0.00 | 0.00 | 83 | 1017.0 |
| 20260906133055 | 25 | 0 | 0.0 | 6.4 | 0.00 | 0.00 | 0.00 | 85 | 1017.1 |
| 20260906131542 | 25 | 0 | 0.0 | 6.4 | 0.00 | 0.00 | 0.00 | 86 | 1016.9 |
| 20260906130050 | 25 | 59 | 1.6 | 8.0 | 0.00 | 0.00 | 0.00 | 86 | 1016.6 |
| 20260906124547 | 25 | 0 | 0.0 | 4.8 | 0.00 | 0.00 | 0.00 | 88 | 1016.5 |
| 20260906123044 | 25 | 29 | 0.0 | 6.4 | 0.00 | 0.00 | 0.00 | 88 | 1016.5 |
| 20260906121543 | 25 | 0 | 0.0 | 4.8 | 0.00 | 0.00 | 0.00 | 89 | 1016.3 |
| 20260906120054 | 25 | 0 | 0.0 | 4.8 | 0.00 | 0.00 | 0.00 | 89 | 1016.2 |
| 20260906114556 | 25 | 0 | 0.0 | 4.8 | 0.00 | 0.00 | 0.00 | 89 | 1016.2 |
| 20260906113043 | 25 | 62 | 0.0 | 9.7 | 0.00 | 0.00 | 0.00 | 88 | 1016.2 |
| 20260906111547 | 25 | 0 | 0.0 | 6.4 | 0.00 | 0.00 | 0.00 | 88 | 1016.1 |
| 20260906110046 | 26 | 0 | 0.0 | 4.8 | 0.00 | 0.00 | 0.00 | 87 | 1016.1 |
| 20260906104547 | 26 | 0 | 0.0 | 8.0 | 0.00 | 0.00 | 0.00 | 87 | 1016.0 |
| 20260906103054 | 26 | 0 | 0.0 | 6.4 | 0.00 | 0.00 | 0.00 | 86 | 1015.8 |
| 20260906101554 | 26 | 106 | 0.0 | 4.8 | 0.00 | 0.00 | 0.00 | 85 | 1015.7 |
| 20260906100057 | 26 | 53 | 0.0 | 6.4 | 0.00 | 0.00 | 0.00 | 84 | 1015.6 |
| 20260906094559 | 27 | 0 | 0.0 | 4.8 | 0.00 | 0.00 | 0.00 | 83 | 1015.5 |
| 20260906093052 | 27 | 0 | 0.0 | 4.8 | 0.00 | 0.00 | 0.00 | 83 | 1015.2 |
| 20260906091546 | 27 | 21 | 0.0 | 3.2 | 0.00 | 0.00 | 0.00 | 82 | 1015.0 |
| 20260906090045 | 27 | 0 | 0.0 | 4.8 | 0.00 | 0.00 | 0.00 | 82 | 1014.9 |
| 20260906084544 | 27 | 70 | 0.0 | 3.2 | 0.00 | 0.00 | 0.00 | 81 | 1014.8 |
| 20260906083050 | 27 | 0 | 0.0 | 4.8 | 0.00 | 0.00 | 0.00 | 81 | 1014.8 |
| 20260906081545 | 27 | 0 | 0.0 | 0.0 | 0.00 | 0.00 | 0.00 | 80 | 1014.9 |
| 20260906080053 | 27 | 0 | 0.0 | 0.0 | 0.00 | 0.00 | 0.00 | 79 | 1014.7 |
| 20260906074549 | 27 | 0 | 0.0 | 3.2 | 0.00 | 0.00 | 0.00 | 78 | 1014.6 |
| 20260906073051 | 27 | 0 | 0.0 | 3.2 | 0.00 | 0.00 | 0.00 | 78 | 1014.9 |
| 20260906071544 | 27 | 0 | 0.0 | 3.2 | 0.00 | 0.00 | 0.00 | 77 | 1014.9 |
| 20260906070052 | 28 | 0 | 0.0 | 3.2 | 0.00 | 0.00 | 0.00 | 77 | 1014.8 |
| 20260906064546 | 27 | 0 | 0.0 | 3.2 | 0.00 | 0.00 | 0.00 | 77 | 1015.1 |
| 20260906063047 | 27 | 0 | 0.0 | 0.0 | 0.00 | 0.00 | 0.00 | 77 | 1015.1 |
| 20260906061544 | 27 | 0 | 0.0 | 0.0 | 0.00 | 0.00 | 0.00 | 77 | 1015.1 |
| 20260906060051 | 27 | 0 | 0.0 | 3.2 | 0.00 | 0.00 | 0.00 | 76 | 1015.1 |
| 20260906054601 | 27 | 0 | 0.0 | 3.2 | 0.00 | 0.00 | 0.00 | 77 | 1015.1 |
| 20260906053043 | 27 | 0 | 0.0 | 0.0 | 0.00 | 0.00 | 0.00 | 77 | 1015.2 |
| 20260906051544 | 27 | 0 | 0.0 | 0.0 | 0.00 | 0.00 | 0.00 | 77 | 1015.1 |
| 20260906044546 | 27 | 0 | 0.0 | 0.0 | 0.00 | 0.00 | 0.00 | 76 | 1015.0 |
| 20260906043043 | 27 | 0 | 0.0 | 0.0 | 0.00 | 0.00 | 0.00 | 76 | 1014.9 |
| 20260906041551 | 27 | 0 | 0.0 | 0.0 | 0.00 | 0.00 | 0.00 | 76 | 1014.9 |
| 20260906040049 | 27 | 0 | 0.0 | 0.0 | 0.00 | 0.00 | 0.00 | 75 | 1014.6 |
| 20260906034549 | 27 | 0 | 0.0 | 0.0 | 0.00 | 0.00 | 0.00 | 74 | 1014.7 |
| 20260906033044 | 27 | 0 | 0.0 | 0.0 | 0.00 | 0.00 | 0.00 | 74 | 1014.6 |
| 20260906031608 | 27 | 0 | 0.0 | 0.0 | 0.00 | 0.00 | 0.00 | 74 | 1014.5 |
| 20260906030045 | 28 | 0 | 0.0 | 0.0 | 0.00 | 0.00 | 0.00 | 72 | 1014.4 |
| 20260906024601 | 28 | 0 | 0.0 | 0.0 | 0.00 | 0.00 | 0.00 | 73 | 1014.3 |
| 20260906023100 | 28 | 0 | 0.0 | 0.0 | 0.00 | 0.00 | 0.00 | 72 | 1014.2 |
| 20260906021552 | 29 | 0 | 0.0 | 0.0 | 0.00 | 0.00 | 0.00 | 71 | 1013.8 |
| 20260906020058 | 29 | 0 | 0.0 | 0.0 | 0.00 | 0.00 | 0.00 | 71 | 1013.8 |
| 20260906014555 | 29 | 0 | 0.0 | 0.0 | 0.00 | 0.00 | 0.00 | 70 | 1013.7 |
| 20260906013048 | 30 | 0 | 0.0 | 0.0 | 0.00 | 0.00 | 0.00 | 68 | 1013.3 |
| 20260906011555 | 30 | 0 | 0.0 | 0.0 | 0.00 | 0.00 | 0.00 | 66 | 1013.3 |
| 20260906010054 | 31 | 0 | 0.0 | 0.0 | 0.00 | 0.00 | 0.00 | 65 | 1013.1 |
| 20260906004550 | 31 | 0 | 0.0 | 0.0 | 0.00 | 0.00 | 0.00 | 63 | 1013.0 |
| 20260906003047 | 32 | 0 | 0.0 | 0.0 | 0.00 | 0.00 | 0.00 | 59 | 1013.0 |
| 20260906001555 | 33 | 0 | 0.0 | 0.0 | 0.00 | 0.00 | 0.00 | 56 | 1013.0 |
| 20260906000059 | 34 | 0 | 0.0 | 4.8 | 0.00 | 0.00 | 0.00 | 55 | 1013.2 |
| 20260905234553 | 34 | 0 | 0.0 | 0.0 | 0.00 | 0.00 | 0.00 | 57 | 1013.1 |
| 20260905233053 | 35 | 0 | 0.0 | 4.8 | 0.00 | 0.00 | 0.00 | 55 | 1012.9 |
| 20260905231554 | 35 | 0 | 0.0 | 3.2 | 0.00 | 0.00 | 0.00 | 53 | 1012.9 |
| 20260905230049 | 35 | 0 | 0.0 | 1.6 | 0.00 | 0.00 | 0.00 | 49 | 1013.1 |
| 20260905224542 | 35 | 0 | 0.0 | 3.2 | 0.00 | 0.00 | 0.00 | 48 | 1012.9 |
| 20260905223050 | 36 | 0 | 1.6 | 4.8 | 0.00 | 0.00 | 0.00 | 47 | 1012.9 |
| 20260905221553 | 36 | 323 | 1.6 | 8.0 | 0.00 | 0.00 | 0.00 | 45 | 1013.0 |
| 20260905220052 | 36 | 0 | 0.0 | 3.2 | 0.00 | 0.00 | 0.00 | 45 | 1013.1 |
| 20260905214558 | 36 | 298 | 0.0 | 8.0 | 0.00 | 0.00 | 0.00 | 47 | 1013.3 |
| 20260905213059 | 36 | 343 | 4.8 | 8.0 | 0.00 | 0.00 | 0.00 | 46 | 1013.2 |
| 20260905211606 | 36 | 0 | 1.6 | 6.4 | 0.00 | 0.00 | 0.00 | 48 | 1013.4 |
| 20260905210059 | 36 | 351 | 3.2 | 8.0 | 0.00 | 0.00 | 0.00 | 47 | 1013.5 |
| 20260905204548 | 36 | 0 | 3.2 | 8.0 | 0.00 | 0.00 | 0.00 | 46 | 1013.7 |
| 20260905203059 | 36 | 299 | 0.0 | 6.4 | 0.00 | 0.00 | 0.00 | 48 | 1014.0 |
| 20260905201556 | 36 | 323 | 1.6 | 9.7 | 0.00 | 0.00 | 0.00 | 48 | 1014.0 |
| 20260905200105 | 36 | 0 | 0.0 | 6.4 | 0.00 | 0.00 | 0.00 | 48 | 1014.2 |
| 20260905194548 | 36 | 319 | 1.6 | 6.4 | 0.00 | 0.00 | 0.00 | 48 | 1014.3 |
| 20260905193059 | 36 | 0 | 0.0 | 12.9 | 0.00 | 0.00 | 0.00 | 48 | 1014.4 |
| 20260905191550 | 35 | 204 | 1.6 | 8.0 | 0.00 | 0.00 | 0.00 | 47 | 1014.5 |
| 20260905190053 | 35 | 329 | 3.2 | 8.0 | 0.00 | 0.00 | 0.00 | 46 | 1014.7 |
| 20260905184551 | 35 | 296 | 1.6 | 8.0 | 0.00 | 0.00 | 0.00 | 49 | 1014.9 |
| 20260905183057 | 35 | 268 | 1.6 | 6.4 | 0.00 | 0.00 | 0.00 | 52 | 1015.0 |
| 20260905181550 | 35 | 317 | 1.6 | 8.0 | 0.00 | 0.00 | 0.00 | 52 | 1015.1 |
| 20260905180105 | 34 | 317 | 3.2 | 6.4 | 0.00 | 0.00 | 0.00 | 54 | 1015.4 |
| 20260905174556 | 33 | 334 | 1.6 | 8.0 | 0.00 | 0.00 | 0.00 | 58 | 1015.6 |
| 20260905173100 | 33 | 0 | 1.6 | 6.4 | 0.00 | 0.00 | 0.00 | 62 | 1015.7 |
| 20260905171546 | 33 | 0 | 1.6 | 4.8 | 0.00 | 0.00 | 0.00 | 62 | 1015.7 |
| 20260905170042 | 33 | 0 | 0.0 | 8.0 | 0.00 | 0.00 | 0.00 | 64 | 1016.1 |